Home > Weather > Rustenburg > Past weeks

Flag for South Africa Weather for the Past 2 Weeks in Rustenburg, South Africa

Now
75 °F

Mild.


Feels Like: 78 °F
Forecast: 66 / 94 °F
Wind: 2 mph from North

Location: Lanseria Civ / Mil

Current Time: Feb 14, 2016 at 12:13:38 AM

Latest Report: Feb 13, 2016 at 11:00 PM


Visibility: N/A

Pressure: 30.07 "Hg (26.30 "Hg at 1166m altitude)

Humidity: 50%

Dew point: 55 °F

Location of RustenburgLocation

Historic Weather in Rustenburg — Graph

°F

Rustenburg Temperature Yesterday

Maximum temperature yesterday: 91 °F (at 3:00 PM)
Minimum temperature yesterday: 63 °F (at 4:00 AM)
Average temperature yesterday: 78 °F

High & Low Weather Summary for the Past Weeks

 TemperatureHumidityPressure
High91 °F (Feb 12, 2:00 PM)100% (Feb 7, 4:00 AM)30.36 "Hg (Feb 7, 4:00 AM)
Low61 °F (Feb 1, 6:00 AM)21% (Jan 30, 5:00 PM)29.98 "Hg (Feb 4, 3:00 PM)
Average75 °F57%30.13 "Hg
* Reported Jan 29 10:00 PM — Feb 13 10:00 PM, Rustenburg, Weather by CustomWeather, © 2016

Note: Actual official high and low records may vary slightly from our data, if they occured in-between our weather recording intervals... More about our weather records

Advertising

Rustenburg Weather History for the Previous 24 Hours

 ConditionsComfort  
Time TempWeatherWind HumidityBarometerVisibility
10:00 PM
Sat, Feb 13
75 °FPassing clouds.8 mph47%30.07 "HgN/A
9:00 PM79 °FClear.7 mph42%30.04 "Hg10 mi
8:00 PM82 °FClear.2 mph32%30.01 "Hg10 mi
7:00 PM86 °FClear.5 mph31%30.01 "Hg10 mi
6:00 PM90 °FPassing clouds.6 mph24%29.98 "HgN/A
5:00 PM91 °FScattered clouds.9 mph24%29.98 "HgN/A
4:00 PM91 °FScattered clouds.9 mph26%29.98 "HgN/A
3:00 PM91 °FScattered clouds.8 mph28%30.01 "HgN/A
2:00 PM90 °FPassing clouds.12 mph29%30.04 "HgN/A
1:00 PM88 °FPassing clouds.10 mph33%30.07 "HgN/A
12:00 PM86 °FPassing clouds.9 mph38%30.09 "HgN/A
11:00 AM82 °FPassing clouds.12 mph45%30.09 "HgN/A
10:00 AM81 °FPassing clouds.7 mph51%30.12 "HgN/A
9:00 AM75 °FPassing clouds.6 mph61%30.12 "HgN/A
8:00 AM73 °FPassing clouds.5 mph65%30.12 "HgN/A
7:00 AM68 °FPassing clouds.3 mph78%30.12 "HgN/A
6:00 AM66 °FSunny.2 mph73%30.09 "Hg10 mi
5:00 AM64 °FMild.7 mph78%30.09 "HgN/A
4:00 AM63 °FMild.6 mph83%30.07 "HgN/A
3:00 AM64 °FMild.6 mph78%30.07 "HgN/A
2:00 AM68 °FMild.No wind69%30.07 "HgN/A
1:00 AM70 °FMild.1 mph60%30.07 "HgN/A
12:00 AM70 °FMild.6 mph64%30.07 "HgN/A
Weather by CustomWeather, © 2016

See weather overviewHow to use our weather pages